Weather History for Defiance, OH

Change the Weather History Date:

Thursday, January 23, 2014

  Actual Average Record
Temperature  
Mean Temperature 6 °F -  
Max Temperature 12 °F 35 °F 59 °F (1999)
Min Temperature 0 °F 18 °F -14 °F (1936)
Degree Days  
Heating Degree Days 58    
Moisture  
Dew Point -2 °F    
Average Humidity 70    
Maximum Humidity 78    
Minimum Humidity 61    
Precipitation  
Precipitation 0.00 in - - ()
Sea Level Pressure  
Sea Level Pressure 30.33 in    
Wind  
Wind Speed 7 mph (WSW)    
Max Wind Speed 10 mph    
Max Gust Speed 18 mph    
Visibility 10 miles    
Events      
Averages and records for this station are not official NWS values.
T = Trace of Precipitation, MM = Missing Value Source: NWS Daily Summary

Daily Weather History Graph

Daily Weather History Graph

Search for Another Location

Airport:

Trip Planner

Search our weather history database for the weather conditions in past years. The results will help you decide how hot, cold, wet, or windy it might be!

Date:

Astronomy

Jan. 23, 2014 Rise Set
Actual Time 7:56 AM EST 5:42 PM EST
Civil Twilight 7:26 AM EST 6:12 PM EST
Nautical Twilight 6:53 AM EST 6:46 PM EST
Astronomical Twilight 6:20 AM EST 7:19 PM EST
Moon 12:18 AM EST (1/23) 11:26 AM EST (1/23)
Length of Visible Light 10h 45m
Length of Day
9h 46m
Waning Gibbous, 55% of the Moon is Illuminated
Jan 23
Waning Gibbous
Jan 24
Last Quarter
Jan 30
New
Feb 6
First Quarter
Feb 14
Full

Hourly Weather History & Observations

Time (EST) Temp. Windchill Dew Point Humidity Pressure Visibility Wind Dir Wind Speed Gust Speed Precip Events Conditions
12:53 AM 10.9 °F 4.7 °F 5.0 °F 77% 30.03 in 10.0 mi Variable 3.5 mph - N/A   Clear
1:53 AM 10.0 °F 1.8 °F 1.9 °F 70% 30.05 in 10.0 mi West 4.6 mph - N/A   Clear
2:53 AM 8.1 °F -5.3 °F 1.0 °F 73% 30.09 in 10.0 mi WSW 9.2 mph - N/A   Clear
3:14 AM 8.6 °F -2.6 °F 1.4 °F 73% 30.06 in 10.0 mi Variable 6.9 mph - N/A   Mostly Cloudy
3:50 AM 8.6 °F -3.7 °F -0.4 °F 67% 30.08 in 10.0 mi West 8.1 mph - N/A   Overcast
3:53 AM 8.1 °F -5.3 °F 1.0 °F 73% 30.13 in 10.0 mi West 9.2 mph - N/A   Overcast
4:53 AM 8.1 °F -3.2 °F 1.0 °F 73% 30.15 in 10.0 mi West 6.9 mph - N/A   Overcast
5:53 AM 6.1 °F -5.6 °F -0.9 °F 73% 30.19 in 10.0 mi Variable 6.9 mph - N/A   Overcast
6:21 AM 5.0 °F -8.1 °F -2.2 °F 72% 30.16 in 8.0 mi West 8.1 mph - N/A   Overcast
6:39 AM 3.2 °F -10.3 °F -2.2 °F 78% 30.18 in 10.0 mi West 8.1 mph - N/A   Mostly Cloudy
6:53 AM 3.9 °F -8.2 °F -2.9 °F 73% 30.24 in 10.0 mi West 6.9 mph - N/A   Scattered Clouds
7:53 AM 1.9 °F -9.2 °F -5.1 °F 72% 30.28 in 10.0 mi WSW 5.8 mph - N/A   Partly Cloudy
8:53 AM 1.9 °F -7.6 °F -5.1 °F 72% 30.31 in 10.0 mi Variable 4.6 mph - N/A   Overcast
9:53 AM 3.9 °F -8.2 °F -4.0 °F 70% 30.34 in 10.0 mi Variable 6.9 mph - N/A   Clear
10:53 AM 6.1 °F -5.6 °F -2.9 °F 67% 30.38 in 10.0 mi Variable 6.9 mph 18.4 mph N/A   Clear
11:53 AM 8.1 °F -5.3 °F -2.0 °F 64% 30.39 in 10.0 mi WSW 9.2 mph 16.1 mph N/A   Clear
12:53 PM 10.0 °F -3.7 °F -0.0 °F 64% 30.40 in 10.0 mi WSW 10.4 mph - N/A   Mostly Cloudy
1:24 PM 10.4 °F -2.4 °F -0.4 °F 62% 30.36 in 10.0 mi WSW 9.2 mph 17.3 mph N/A   Overcast
1:53 PM 10.9 °F -2.6 °F -0.0 °F 61% 30.42 in 10.0 mi WSW 10.4 mph 16.1 mph N/A   Overcast
2:53 PM 12.0 °F 2.7 °F 1.9 °F 64% 30.45 in 10.0 mi Variable 5.8 mph - N/A   Overcast
3:53 PM 12.0 °F -1.3 °F 1.0 °F 61% 30.46 in 10.0 mi WSW 10.4 mph 17.3 mph N/A   Mostly Cloudy
4:53 PM 10.0 °F -1.9 °F -0.0 °F 64% 30.50 in 10.0 mi WSW 8.1 mph - N/A   Partly Cloudy
5:53 PM 7.0 °F -4.5 °F -2.0 °F 67% 30.53 in 10.0 mi WSW 6.9 mph - N/A   Scattered Clouds
6:53 PM 3.9 °F -6.9 °F -5.1 °F 66% 30.56 in 10.0 mi SW 5.8 mph - N/A   Clear
7:53 PM 1.9 °F -7.6 °F -6.0 °F 69% 30.57 in 10.0 mi WSW 4.6 mph - N/A   Clear
8:53 PM 1.9 °F -9.2 °F -5.1 °F 72% 30.57 in 10.0 mi WSW 5.8 mph - N/A   Clear
9:53 PM 1.0 °F -8.7 °F -6.0 °F 72% 30.57 in 10.0 mi WSW 4.6 mph - N/A   Clear
10:53 PM 1.0 °F -10.3 °F -6.0 °F 72% 30.56 in 10.0 mi SW 5.8 mph - N/A   Partly Cloudy
11:53 PM -0.0 °F -11.6 °F -6.0 °F 76% 30.55 in 10.0 mi SW 5.8 mph - N/A   Clear